Flag for Greece Weather past 2 weeks in Kalamata, Greece

Now
88 °F

Sunny.


Feels Like: 90 °F
Forecast: 67 / 85 °F
Wind: 9 mph from South

Location: Kalamata Airport

Current Time: Jul 22, 2014 at 12:56:12 PM

Latest Report: Jul 22, 2014 at 12:20 PM


Visibility: 10 mi

Pressure: 29.80 "Hg

Humidity: 49%

Dew point: 66 °F

Location of KalamataLocation

Historic Weather in Kalamata — Graph

°F

Kalamata temperature yesterday

Maximum temperature yesterday: 90 °F (at 4:50 PM)
Minimum temperature yesterday: 66 °F (at 4:50 AM)
Average temperature yesterday: 80 °F

Past Weeks' High & Low Weather Summary

 TemperatureHumidityPressure
High93 °F (Jul 9, 3:50 PM)94% (Jul 13, 6:20 AM)29.95 "Hg (Jul 13, 6:20 AM)
Low61 °F (Jul 13, 6:20 AM)24% (Jul 9, 3:50 PM)29.68 "Hg (Jul 11, 3:50 AM)
Average77 °F61%29.85 "Hg
* Reported Jul 7 11:20 AM — Jul 22 11:50 AM, Kalamata, Weather by CustomWeather, © 2014

Note: Actual official high and low records may vary slightly from our data, if they occured in-between our weather recording intervals... More about our weather records

Advertising

Kalamata weather history for previous 24 hours

 ConditionsComfort  
Time TempWeatherWind HumidityBarometerVisibility
11:50 AM
Jul 22
88 °FSunny.5 mph49%29.80 "Hg10 mi
10:50 AM88 °FSunny.No wind38%29.80 "Hg10 mi
10:20 AM86 °FSunny.No wind49%29.80 "Hg10 mi
9:50 AM82 °FSunny.No wind55%29.80 "Hg10 mi
9:20 AM81 °FSunny.5 mph62%29.80 "Hg10 mi
8:50 AM77 °FSunny.6 mph74%29.80 "Hg10 mi
8:20 AM73 °FSunny.7 mph83%29.80 "Hg10 mi
7:50 AM70 °FSunny.No wind88%29.80 "Hg10 mi
7:20 AM68 °FClear.No wind88%29.80 "Hg10 mi
6:50 AM68 °FClear.6 mph88%29.83 "Hg10 mi
6:20 AM68 °FClear.6 mph94%29.80 "Hg10 mi
5:50 AM68 °FClear.No wind88%29.83 "Hg10 mi
4:50 AM68 °FClear.No wind88%29.80 "Hg10 mi
3:50 AM68 °FPassing clouds.No wind88%29.80 "HgN/A
2:50 AM68 °FPassing clouds.No wind94%29.80 "HgN/A
1:50 AM70 °FClear.No wind94%29.83 "Hg10 mi
12:50 AM72 °FClear.No wind88%29.83 "Hg10 mi
11:50 PM
Jul 21
72 °FPassing clouds.No wind94%29.83 "HgN/A
10:50 PM75 °FPassing clouds.No wind89%29.86 "HgN/A
9:50 PM75 °FPassing clouds.No wind89%29.86 "HgN/A
8:50 PM79 °FPassing clouds.No wind79%29.83 "HgN/A
8:20 PM81 °FPassing clouds.No wind74%29.83 "HgN/A
7:50 PM82 °FPassing clouds.5 mph66%29.83 "HgN/A
7:20 PM84 °FPassing clouds.5 mph62%29.83 "HgN/A
6:50 PM84 °FScattered clouds.5 mph62%29.83 "HgN/A
6:20 PM86 °FPassing clouds.7 mph55%29.83 "HgN/A
5:50 PM88 °FPassing clouds.7 mph49%29.83 "HgN/A
5:20 PM90 °FPassing clouds.9 mph43%29.83 "HgN/A
4:50 PM90 °FPassing clouds.7 mph38%29.83 "HgN/A
4:20 PM88 °FPassing clouds.8 mph49%29.83 "HgN/A
3:50 PM88 °FPassing clouds.9 mph46%29.86 "HgN/A
3:20 PM88 °FPassing clouds.10 mph46%29.86 "HgN/A
2:50 PM86 °FPassing clouds.9 mph52%29.86 "HgN/A
2:20 PM86 °FPassing clouds.9 mph52%29.86 "HgN/A
1:50 PM86 °FPassing clouds.8 mph52%29.89 "HgN/A
1:20 PM86 °FPassing clouds.8 mph52%29.89 "HgN/A
12:50 PM84 °FPassing clouds.8 mph51%29.89 "HgN/A
12:20 PM86 °FPassing clouds.9 mph46%29.89 "HgN/A
Weather by CustomWeather, © 2014

See weather overviewHow to use our weather pages